Weather in Loznoye

Russia / Belgorod Oblast     50°52′45″N   37°30′45″E
temp.,
°C
wind,
m/s
gust,
m/s
humid.,
%
clouds,
%
prec.,
mm/h
press.,
hPa
HPBL,
m
28 september, tue
tue2800:00+8nnw3783100 0.1 1021302
03:00+9n4885100 0.2 1021351
06:00+7n479363 0.1 1022286
09:00+9nne4784100 0.1 1022531
12:00+9ne477696 0.4 1024826
15:00+10ne6665100 0.5 10251035
18:00+8ne587591 0.0 1027694
21:00+7ene5881100 0.0 1029799
29 september, wed
wed2900:00+7ne4778100 0.0 1030716
03:00+6ne4778100 0.0 1031529
06:00+6ne487831 0.0 1032541
09:00+7ne58622 0.0 1033675
12:00+10ene564451 0.0 10321272
15:00+12ne55370 0.0 10311387
18:00+8ne36500 0.0 1032113
21:00+6ne36601 0.0 1033104
30 september, thu
thu3000:00+4ne236644 0.0 103332
03:00+4ne226932 0.0 103425
06:00+3nne33745 0.0 103429
09:00+7ne34575 0.0 1035333
12:00+11ene34425 0.0 10341207
15:00+13ene33395 0.0 10331515
18:00+9ne33525 0.0 103326
21:00+7ene22622 0.0 103519
1 october, fri
fri100:00+6ene11671 0.0 103510
03:00+5ne11725 0.0 103610
06:00+4ne11755 0.0 103610
09:00+9ene22575 0.0 1036257
12:00+13e22445 0.0 10361166
15:00+14ene22395 0.0 10341389
18:00+10ene22515 0.0 103411
21:00+8ese22600 0.0 103512
2 october, sat
sat200:00+7ese11650 0.0 103510
03:00+6ese11701 0.0 103510
06:00+5e12745 0.0 103510
09:00+10ese23575 0.0 1035250
12:00+14se34451 0.0 10341179
15:00+16se34430 0.0 10321491
18:00+12ese335822 0.0 103225
21:00+11se486426 0.0 1033204